Theta_e
316 318 319 321 316 315 318 319 320 321 322 329 331 346 347 346 349 350 344 341 334 335 337 336 338 339 340 339 338 338 336 335 329 327 328 335 333 333 332 330 328 325 327 326 330 330 334 335 335
314 316 321 315 316 317 317 320 321 322 324 323 328 346 347 344 347 346 344 340 334 334 335 335 337 339 339 339 338 337 335 332 327 327 328 330 334 333 331 329 327 325 326 336 334 332 334 333 334
311 315 316 315 315 317 318 320 322 323 329 327 333 347 346 341 346 346 344 340 336 334 333 333 335 337 337 337 336 333 331 330 326 326 329 329 330 330 328 328 327 326 335 337 336 335 334 333 333
311 314 315 318 318 317 319 321 323 324 337 340 339 351 345 340 341 346 343 341 339 335 332 331 332 334 334 335 336 334 330 330 328 328 330 330 329 327 326 328 335 334 337 340 334 335 333 333 332
312 310 318 318 318 319 319 320 321 323 330 342 342 349 347 340 345 345 343 343 341 335 332 331 331 334 335 335 336 334 332 329 332 331 329 328 327 324 324 327 331 330 340 338 334 333 333 332 330
311 311 317 320 320 320 320 320 321 323 325 339 347 349 345 340 341 343 343 343 341 334 332 332 333 335 335 335 334 329 329 330 333 327 325 325 323 320 319 321 332 337 337 333 333 333 332 330 328
308 313 316 318 320 321 320 320 322 323 322 323 342 351 346 339 340 344 344 343 337 333 332 335 335 335 336 336 331 328 329 330 326 326 326 323 321 322 323 333 336 336 332 333 333 332 330 327 324
305 310 314 317 320 320 320 320 323 325 322 324 342 349 346 340 341 345 343 340 336 333 331 334 336 337 337 335 330 329 327 327 326 324 322 321 323 325 329 335 334 332 332 332 332 331 329 325 323
308 305 311 314 317 319 319 320 323 323 324 325 335 342 339 339 343 343 341 339 338 335 333 332 334 335 336 335 334 330 326 325 324 322 320 325 330 331 335 333 332 332 332 332 331 329 325 323 321
306 303 306 310 313 316 318 319 323 323 324 324 344 339 336 340 343 342 341 340 338 337 336 330 330 333 334 334 332 328 325 323 322 321 325 333 335 334 334 333 332 332 332 331 327 323 323 322 320
306 308 306 307 309 312 313 316 322 324 325 325 346 344 342 340 343 342 342 340 338 337 336 334 333 330 330 329 328 326 324 321 320 321 335 337 336 335 335 332 332 331 332 328 327 327 324 323 320
306 307 307 307 308 308 309 314 317 323 325 325 342 343 343 341 341 343 342 340 339 338 336 336 334 333 330 325 324 321 321 321 323 325 335 337 336 333 334 332 331 332 329 329 328 321 323 324 319
307 306 307 309 307 307 308 308 312 320 322 325 342 342 342 342 340 343 342 340 338 338 337 336 335 334 330 326 322 323 328 329 329 329 335 335 334 333 334 333 331 330 330 330 322 321 317 319 318
307 307 306 307 307 308 308 308 309 313 322 324 331 342 341 341 340 340 341 339 338 338 337 337 337 335 329 330 328 328 330 332 333 336 334 334 335 333 334 333 332 332 330 322 322 319 315 316 315
306 306 306 306 306 307 308 307 308 310 320 323 336 344 340 337 340 339 339 339 338 337 336 337 338 335 330 331 333 329 331 336 337 335 333 333 335 335 334 333 333 330 325 321 317 314 312 314 315
303 304 305 307 306 307 306 308 309 308 314 321 332 341 337 327 328 339 338 338 338 337 336 337 337 336 334 336 335 335 335 334 334 333 334 333 334 334 334 333 332 330 324 319 315 312 312 313 312
302 303 304 306 307 306 305 308 308 308 312 323 334 334 327 325 327 330 338 338 337 338 336 338 336 335 336 334 334 333 334 335 334 333 332 335 334 333 334 333 331 329 322 318 314 312 310 311 311
302 303 303 305 307 306 306 306 308 309 311 321 334 330 331 330 329 333 339 337 338 337 337 338 337 335 335 333 333 331 334 333 333 332 333 334 334 333 333 332 331 328 323 317 313 310 310 310 311
305 305 305 304 306 307 306 306 308 309 309 313 329 329 327 331 333 334 337 337 337 336 335 336 336 335 335 334 332 331 333 333 332 332 331 332 333 330 333 331 327 324 324 317 313 310 310 310 310
306 305 305 305 306 306 306 306 306 309 309 309 322 327 328 327 327 332 336 336 336 335 334 335 335 335 334 333 332 331 330 330 330 330 329 329 330 328 333 329 327 324 323 319 312 311 311 310 310
307 306 305 305 305 306 305 305 307 309 310 310 315 326 328 327 329 337 336 335 336 334 334 336 334 334 334 333 332 331 329 325 324 324 324 323 326 324 330 329 328 325 323 317 313 311 311 310 310
307 307 307 306 305 305 305 306 307 308 309 309 317 318 323 326 326 336 335 336 336 334 336 335 334 334 333 332 330 330 325 321 321 321 320 320 320 321 324 325 327 327 323 317 313 311 310 309 311
307 307 307 306 305 304 305 306 308 308 309 309 316 318 320 322 326 331 335 337 336 335 335 335 334 334 333 331 330 329 324 322 319 318 318 318 319 320 324 325 327 325 322 319 314 312 311 310 311
312 312 308 306 305 305 305 306 308 308 310 309 316 318 320 320 329 331 334 336 336 336 335 334 334 334 333 331 330 327 322 319 317 317 317 317 318 322 323 326 325 324 323 318 315 313 311 311 313
311 313 309 309 305 305 305 307 308 310 310 310 313 318 323 323 330 326 327 333 336 336 335 334 333 333 331 331 327 325 323 319 316 315 315 315 317 322 325 325 324 323 322 320 316 313 314 313 314
312 312 310 311 306 305 306 308 308 310 310 310 313 313 319 322 335 334 334 336 336 335 335 334 333 332 331 331 326 324 323 317 316 314 313 314 316 320 324 325 324 324 322 319 317 315 315 317 317
313 313 309 308 308 311 308 308 309 310 310 310 311 312 314 330 334 336 334 335 336 335 334 334 332 331 332 328 326 326 318 317 315 314 313 313 315 318 322 325 324 324 321 319 318 317 317 317 318
311 311 308 308 310 311 312 308 310 312 311 310 311 313 315 329 331 331 332 330 333 333 334 333 332 331 332 329 327 326 318 317 316 315 314 313 313 314 317 321 323 323 322 322 321 319 320 320 319
311 311 309 311 311 313 311 310 326 324 324 312 311 313 320 333 333 330 327 327 332 329 333 333 331 330 330 329 328 322 318 317 316 317 315 314 313 313 314 314 315 317 320 320 320 319 318 319 318
312 310 310 313 311 310 311 320 320 319 318 321 317 314 324 332 329 331 330 333 333 334 334 332 331 330 329 328 326 322 318 316 316 319 316 314 313 313 313 313 313 312 312 312 313 314 315 315 314
Wind_Speed
14 11 16 9 3 4 6 9 10 17 4 0 5 13 11 4 5 7 19 35 42 38 33 31 31 30 28 25 23 22 22 22 23 25 25 25 25 24 24 24 22 21 20 20 23 25 27 26 26
11 10 5 1 2 2 6 13 17 7 4 4 7 18 16 11 11 20 20 35 41 39 34 32 31 30 28 26 22 21 22 22 23 24 23 24 23 22 22 21 20 19 19 21 24 25 27 28 30
9 5 2 3 4 6 7 20 10 17 6 7 5 10 5 11 19 13 37 38 39 38 34 32 30 29 28 26 23 22 22 22 23 23 22 23 22 21 20 19 19 19 22 25 24 27 28 31 31
4 3 3 3 9 9 12 21 15 13 4 8 5 7 6 7 8 27 41 40 36 36 34 31 30 28 27 26 24 22 23 22 23 23 22 21 21 20 19 19 20 22 24 25 27 27 28 29 28
5 2 3 5 10 14 16 25 18 17 8 3 8 4 7 13 40 46 42 39 36 35 34 30 29 28 26 25 25 23 22 22 22 22 21 21 20 19 19 19 21 23 25 25 27 27 27 27 25
2 3 2 9 13 12 15 25 17 16 7 5 12 8 4 13 30 36 39 42 36 38 33 31 28 27 26 25 24 24 23 22 21 22 21 20 19 19 18 19 23 25 26 26 26 26 26 26 25
5 1 6 9 12 14 14 16 17 18 10 6 14 6 2 9 21 40 41 40 38 37 35 32 29 27 25 25 25 25 23 22 22 22 21 20 20 19 19 22 24 25 24 26 25 25 25 26 27
1 3 6 10 11 19 16 13 11 10 6 2 10 7 8 10 36 38 39 38 38 37 36 33 31 29 27 25 25 25 23 22 22 22 22 21 20 19 21 23 23 22 25 24 23 23 25 26 24
4 4 11 13 14 18 10 13 5 20 12 11 3 11 21 30 43 37 35 33 31 33 35 35 32 30 28 27 25 24 23 22 21 22 22 22 21 20 22 22 21 22 24 23 24 25 24 25 24
6 7 12 8 10 13 15 18 5 6 23 21 10 17 30 28 38 35 31 28 30 30 32 34 32 30 28 26 25 25 24 23 22 23 24 24 22 20 23 21 21 22 23 26 25 26 25 25 26
7 14 7 11 11 17 18 15 9 8 9 20 15 18 20 28 27 28 26 32 32 34 33 33 33 31 30 28 26 25 24 23 23 23 23 21 21 22 24 23 23 23 27 26 22 18 18 24 24
11 9 13 16 19 17 16 15 8 14 18 23 19 24 21 25 20 29 30 31 33 34 35 36 34 33 29 30 28 27 25 24 23 24 20 23 23 21 25 25 25 28 26 23 17 21 21 22 25
15 13 12 15 16 21 16 20 10 12 12 20 19 19 19 21 24 28 31 33 32 35 37 38 37 36 31 29 29 31 28 25 23 19 16 26 22 21 23 27 27 27 22 18 23 22 26 26 27
7 11 11 12 16 15 22 19 7 17 13 21 13 24 20 17 25 28 28 34 33 34 38 39 39 36 31 32 31 30 26 24 23 25 22 20 19 19 22 25 25 20 21 26 21 19 25 26 25
13 15 15 18 10 11 10 16 27 15 11 20 14 20 14 4 24 31 35 34 38 32 40 40 35 33 33 31 27 29 27 28 29 22 18 18 15 17 21 25 22 24 25 25 24 24 25 26 28
12 8 8 5 12 14 10 26 19 12 12 19 14 18 17 8 19 22 29 31 37 37 41 41 34 31 29 31 35 33 30 26 23 19 19 19 17 18 24 26 29 24 28 28 26 25 23 22 22
7 12 13 10 14 10 11 19 11 13 14 16 14 15 15 22 23 38 35 35 31 40 42 41 34 33 29 31 28 29 24 27 24 22 20 17 19 19 23 25 24 24 28 25 25 24 26 26 23
7 12 10 15 16 13 21 20 13 19 16 15 17 17 19 20 18 28 33 36 36 42 45 40 33 32 28 29 25 26 18 31 27 22 24 22 22 18 20 25 27 26 29 29 26 28 26 27 26
16 13 14 15 18 21 16 20 17 20 20 13 19 16 15 16 16 17 28 31 36 39 44 41 38 35 32 29 33 30 27 25 23 21 20 22 23 15 25 26 27 31 25 29 29 30 29 27 26
22 21 21 17 17 15 17 19 15 22 22 18 18 20 20 16 12 12 24 30 36 39 42 40 41 41 34 31 34 31 28 23 24 24 20 21 23 17 30 28 29 30 25 27 30 31 28 30 25
21 18 16 17 17 20 12 16 19 19 23 19 17 21 23 24 18 16 24 30 35 37 39 39 44 41 36 33 33 29 25 24 24 23 22 20 22 21 27 26 26 29 30 33 32 31 30 30 19
22 16 15 14 12 14 8 13 15 21 23 21 20 18 21 19 10 12 19 26 34 37 36 42 46 42 38 36 35 34 25 29 27 25 23 21 21 21 21 23 21 31 33 34 31 29 26 26 24
25 18 17 16 13 12 21 6 13 16 24 21 22 22 20 20 18 18 10 31 36 34 35 41 44 42 39 38 37 38 35 30 28 26 24 24 22 18 24 22 24 31 31 29 30 26 23 24 20
17 18 21 10 6 9 22 8 15 14 26 20 13 22 18 20 19 22 35 25 33 36 35 39 41 43 39 38 39 40 37 31 31 29 28 26 23 24 22 25 26 26 25 27 28 25 22 20 17
12 13 5 5 4 10 18 10 13 16 22 21 18 15 18 19 18 22 23 20 31 33 34 36 38 40 40 31 41 38 33 35 35 36 32 30 28 27 23 27 26 25 21 23 26 26 22 21 17
15 12 4 8 9 12 15 8 13 19 9 7 17 19 20 21 20 25 25 31 30 39 39 36 36 38 36 32 41 36 35 37 36 35 33 33 32 30 26 26 24 22 21 23 25 25 22 15 13
4 8 15 7 6 3 4 7 16 23 11 9 13 19 17 21 20 24 23 28 28 31 41 41 38 39 34 36 39 33 40 37 35 32 31 31 30 30 29 27 27 22 26 27 26 25 22 19 14
8 9 4 3 7 9 6 10 6 9 9 14 16 21 19 26 23 22 21 25 26 26 36 41 40 39 36 37 38 33 40 36 33 32 32 31 30 30 29 28 28 25 27 26 27 24 21 22 19
7 11 5 3 3 2 3 5 12 21 24 12 13 18 17 23 23 21 18 29 26 34 29 36 36 33 35 36 39 37 38 35 34 33 33 31 31 28 28 28 28 28 27 26 25 25 22 23 21
8 5 7 4 2 8 4 3 15 21 23 23 12 20 21 22 20 19 19 26 28 24 31 32 35 35 36 35 40 41 38 35 36 34 34 33 33 29 29 29 27 26 26 26 26 26 25 23 22
Wind_Direction
300 300 313 308 29 72 262 267 259 286 280 47 74 97 102 68 125 152 121 141 137 138 137 132 130 127 126 127 127 124 123 119 119 119 118 116 116 112 109 107 103 100 98 102 103 99 95 88 91
303 316 294 299 107 297 273 266 261 319 39 40 87 95 75 76 78 120 116 136 141 139 139 134 132 130 128 129 127 127 127 125 124 123 120 120 118 114 110 107 105 102 99 103 106 103 95 95 96
297 274 85 156 189 212 246 268 284 307 27 7 70 59 66 109 122 126 136 140 136 139 139 137 136 134 134 135 134 132 132 130 129 127 122 122 119 114 110 105 103 100 98 105 107 104 99 102 102
313 331 326 166 242 249 228 259 278 291 125 50 89 65 55 127 89 131 140 137 136 141 139 140 140 138 137 136 133 134 134 132 130 129 125 122 118 113 109 105 101 103 105 107 112 111 108 108 107
224 311 229 215 236 248 267 270 277 295 301 53 71 71 79 87 122 136 141 138 140 142 139 143 143 141 141 138 137 136 135 134 130 128 128 124 120 116 113 110 107 107 108 109 115 115 113 111 105
326 153 241 230 244 239 241 261 275 276 259 166 106 108 48 135 132 140 136 141 143 142 142 144 144 144 141 137 139 138 137 136 133 134 131 128 124 121 119 117 113 112 112 118 119 116 111 104 96
189 226 222 235 252 267 256 258 264 267 246 198 142 93 157 138 124 131 134 142 143 143 145 146 146 142 143 143 143 140 141 140 138 136 133 130 126 125 121 114 114 117 120 123 121 116 109 103 98
167 176 258 244 246 252 263 275 353 334 208 79 128 147 166 185 124 129 131 135 141 146 147 148 147 147 147 146 144 143 142 144 143 139 135 132 127 124 120 118 118 122 124 124 120 116 110 102 97
309 241 241 240 236 241 280 285 10 327 293 331 315 146 158 138 124 124 125 130 136 143 150 150 150 151 151 148 147 146 145 146 145 141 138 134 126 122 123 123 125 126 125 123 117 113 108 105 105
176 224 236 238 248 251 258 275 152 198 275 307 64 94 150 139 131 135 141 142 144 147 152 152 154 155 154 153 153 149 150 151 151 147 142 135 135 133 130 130 128 126 127 122 114 109 110 114 113
239 244 264 264 254 255 265 265 186 189 242 266 151 149 151 145 136 140 148 149 152 153 154 154 155 156 158 158 156 154 154 154 154 152 142 145 146 144 137 135 134 131 131 127 116 112 119 121 125
261 249 238 255 271 276 274 275 244 210 213 254 168 168 160 158 156 155 155 153 157 157 160 161 159 156 162 158 160 155 155 158 157 159 150 167 157 150 146 145 142 140 137 128 114 111 122 138 126
253 264 260 247 245 258 268 268 269 227 216 233 167 167 173 175 163 160 156 154 162 159 163 168 165 162 163 160 161 159 160 158 165 166 171 167 161 152 154 153 149 143 137 128 131 124 111 126 132
289 291 277 268 265 250 250 261 254 254 219 207 183 172 179 188 171 162 156 161 168 164 166 171 171 169 166 166 167 168 171 171 164 157 154 162 162 157 162 158 156 146 147 141 138 130 118 114 122
268 279 288 273 275 269 246 261 249 253 210 221 152 161 155 269 178 169 171 165 170 165 164 170 168 169 174 170 187 180 184 177 161 159 155 167 161 153 159 159 159 149 146 138 135 127 127 120 118
290 283 263 275 258 267 238 246 258 253 227 216 153 155 156 239 284 185 174 172 172 162 164 170 171 168 166 162 148 148 157 160 158 154 147 149 151 149 149 153 156 156 148 144 136 136 135 127 115
230 256 258 264 249 239 241 251 244 253 239 208 139 155 159 176 241 264 181 184 176 163 165 166 172 172 157 154 147 147 149 156 153 150 149 147 156 157 158 160 164 160 149 148 143 139 131 127 126
221 237 251 255 262 252 250 251 233 250 260 192 146 152 167 172 196 246 185 184 169 167 167 164 169 173 163 160 153 152 141 153 153 153 154 159 155 166 167 162 160 160 153 153 147 142 140 138 136
263 261 250 242 235 251 253 245 231 236 248 225 153 160 164 183 186 222 176 182 163 165 168 167 168 172 163 159 154 156 141 148 151 157 162 166 169 163 174 162 159 157 159 157 153 150 147 144 143
237 246 259 273 269 257 255 250 231 227 239 228 159 163 172 193 183 177 194 174 166 165 166 169 168 170 168 163 161 160 151 149 154 154 159 170 174 158 169 163 165 163 166 167 160 158 152 150 158
250 242 245 245 260 270 271 262 246 234 229 229 216 168 170 182 184 172 176 169 171 167 168 168 168 171 169 166 160 160 153 151 149 151 159 170 176 165 169 167 168 171 169 164 161 164 161 158 168
247 243 248 258 260 261 229 263 256 224 222 227 211 193 178 183 157 156 169 168 174 168 171 164 167 169 170 165 163 167 161 152 164 164 163 169 173 170 171 177 180 179 171 167 172 176 178 174 178
236 235 235 237 255 263 270 259 265 221 213 213 213 204 192 162 160 150 197 175 172 164 166 162 167 170 174 170 174 175 168 167 163 164 165 163 171 170 171 179 174 169 171 174 174 175 182 177 187
285 290 238 211 241 260 261 225 265 265 201 207 203 200 188 202 157 156 171 203 169 163 161 164 167 171 173 174 176 173 166 164 164 164 166 166 172 168 171 170 171 172 175 180 178 179 179 183 190
300 270 210 233 237 242 255 250 246 272 215 194 204 170 181 188 162 162 172 198 171 161 163 168 170 171 174 174 171 169 171 173 173 169 168 168 171 173 166 165 166 173 179 185 182 184 186 195 204
297 256 199 198 218 240 255 237 250 272 209 176 189 199 177 174 160 174 175 184 178 170 165 170 171 175 176 174 170 170 176 175 175 173 173 175 175 173 172 173 171 178 185 182 184 190 193 189 181
267 220 245 224 270 313 243 226 267 261 225 209 212 200 181 162 162 164 174 177 175 175 166 172 170 176 177 177 174 169 172 177 175 176 177 176 178 177 175 175 177 171 181 182 188 193 196 200 190
188 273 249 191 213 232 262 252 228 262 219 217 236 199 182 156 163 170 172 160 186 194 180 171 171 174 176 173 177 172 176 179 178 177 177 178 179 181 181 183 185 181 175 182 185 189 192 194 193
170 225 232 113 229 228 220 230 4 3 342 236 229 196 154 152 160 169 172 168 173 217 172 170 169 172 175 173 176 175 177 180 177 177 180 181 182 181 183 182 186 190 190 189 186 189 189 190 185
292 272 181 148 153 247 281 292 24 14 356 4 300 189 148 153 159 153 146 147 161 198 166 170 167 168 171 170 173 177 178 179 179 182 180 183 180 181 183 184 188 187 187 188 188 190 194 195 187